KB1JDX Weather Reports


time (UTC)temp
C
wind
direction
speed
KPH
gust
KPH
rain 1hr
cm
rain 24hr
cm
rain mn
cm
humidity
%
barometer
mb
20260901153219 18 341 0.0 11.3 0.00 0.00 0.00 100 1016.6
20260901153114 18 59 0.0 11.3 0.00 0.00 0.00 100 1016.6
20260901151219 19 148 0.0 11.3 0.00 0.00 0.00 100 1016.8
20260901145220 19 194 0.0 0.0 0.00 0.00 0.00 100 1016.9
20260901143219 19 319 0.0 0.0 0.00 0.00 0.00 100 1016.6
20260901143114 19 319 0.0 0.0 0.00 0.00 0.00 100 1016.6
20260901141219 19 323 0.0 0.0 0.00 0.00 0.00 100 1016.9
20260901135219 19 327 0.0 0.0 0.00 0.00 0.00 100 1016.7
20260901133220 19 327 0.0 0.0 0.00 0.00 0.00 100 1016.7
20260901133114 19 327 0.0 0.0 0.00 0.00 0.00 100 1016.7
20260901131221 19 327 0.0 0.0 0.00 0.00 0.00 100 1016.7
20260901123219 19 339 0.0 0.0 0.00 0.00 0.00 100 1016.8
20260901123114 19 339 0.0 0.0 0.00 0.00 0.00 100 1016.9
20260901121220 19 339 0.0 0.0 0.00 0.00 0.00 100 1016.9
20260901113219 18 339 0.0 0.0 0.00 0.00 0.00 100 1016.8
20260901113114 18 339 0.0 0.0 0.00 0.00 0.00 100 1016.7
20260901105219 18 339 0.0 0.0 0.00 0.00 0.00 100 1016.6
20260901103219 18 217 0.0 0.0 0.00 0.00 0.00 100 1016.4
20260901103114 18 217 0.0 0.0 0.00 0.00 0.00 100 1016.5
20260901101219 18 217 0.0 0.0 0.00 0.00 0.00 100 1016.2
20260901095219 18 217 0.0 0.0 0.00 0.00 0.00 100 1016.4
20260901093219 18 217 0.0 0.0 0.00 0.00 0.00 100 1016.6
20260901093114 18 217 0.0 0.0 0.00 0.00 0.00 100 1016.5
20260901091219 18 217 0.0 0.0 0.00 0.00 0.00 100 1016.6
20260901085219 18 217 0.0 0.0 0.00 0.00 0.00 100 1016.6
20260901083219 18 217 0.0 0.0 0.00 0.00 0.00 100 1016.6
20260901083114 18 217 0.0 0.0 0.00 0.00 0.00 100 1016.7
20260901081220 18 217 0.0 0.0 0.00 0.00 0.00 100 1017.0
20260901073219 18 217 0.0 0.0 0.00 0.00 0.00 100 1017.2
20260901073114 18 217 0.0 0.0 0.00 0.00 0.00 100 1017.2
20260901071219 18 217 0.0 0.0 0.00 0.00 0.00 100 1017.4
20260901065219 18 217 0.0 0.0 0.00 0.00 0.00 100 1017.2
20260901063219 18 217 0.0 0.0 0.00 0.00 0.00 100 1017.1
20260901063114 18 217 0.0 0.0 0.00 0.00 0.00 100 1017.1
20260901061219 18 217 0.0 0.0 0.00 0.00 0.00 100 1017.6
20260901055219 18 217 0.0 0.0 0.00 0.00 0.00 100 1017.7
20260901053114 18 217 0.0 0.0 0.00 0.00 0.00 100 1017.8
20260901051220 18 217 0.0 0.0 0.00 0.00 0.00 100 1017.7
20260901045219 18 217 0.0 0.0 0.00 0.00 0.00 100 1018.2
20260901043219 19 217 0.0 0.0 0.00 0.00 0.00 100 1018.1
20260901043114 19 217 0.0 0.0 0.00 0.00 0.00 100 1018.2
20260901041219 19 217 0.0 0.0 0.00 0.00 0.00 100 1018.1
20260901035219 19 217 0.0 0.0 0.00 0.00 0.00 100 1018.2
20260901033219 19 217 0.0 0.0 0.00 0.00 0.00 100 1018.5
20260901033114 19 217 0.0 0.0 0.00 0.00 0.00 100 1018.5
20260901031219 19 217 0.0 0.0 0.00 0.00 0.00 100 1018.5
20260901025220 19 217 0.0 0.0 0.00 0.00 0.00 100 1018.2
20260901023219 19 217 0.0 0.0 0.00 0.00 0.00 100 1018.2
20260901023114 19 217 0.0 0.0 0.00 0.00 0.00 100 1018.2
20260901021220 19 217 0.0 0.0 0.00 0.00 0.00 100 1018.2
20260901015219 19 217 0.0 0.0 0.00 0.00 0.00 100 1018.4
20260901013114 19 217 0.0 0.0 0.00 0.00 0.00 100 1018.6
20260901011219 20 217 0.0 0.0 0.00 0.00 0.00 10 1018.5
20260901005219 20 217 0.0 1.6 0.00 0.00 0.00 22 1018.6
20260901003221 20 217 0.0 1.6 0.00 0.00 0.00 28 1018.5
20260901003114 20 217 0.0 1.6 0.00 0.00 0.00 28 1018.5
20260901001219 20 217 0.0 1.6 0.00 0.00 0.00 31 1018.3
20260831235219 20 217 0.0 3.2 0.00 0.00 0.00 28 1018.3
20260831233219 21 221 0.0 3.2 0.00 0.00 0.00 12 1018.6
20260831233114 21 221 0.0 3.2 0.00 0.00 0.00 12 1018.5
20260831231218 21 182 0.0 3.2 0.00 0.00 0.00 11 1018.5
20260831225219 22 178 0.0 16.1 0.00 0.00 0.00 12 1018.5
20260831223114 22 215 1.6 16.1 0.00 0.00 0.00 14 1018.4
20260831215219 23 221 0.0 0.0 0.00 0.00 0.00 21 1018.4
20260831213219 24 211 0.0 0.0 0.00 0.00 0.00 45 1018.4
20260831213114 24 211 0.0 0.0 0.00 0.00 0.00 45 1018.4
20260831211219 24 198 0.0 0.0 0.00 0.00 0.00 45 1018.1
20260831203219 25 198 0.0 0.0 0.00 0.00 0.00 47 1018.2
20260831203114 25 198 0.0 0.0 0.00 0.00 0.00 47 1018.2
20260831195219 26 198 0.0 0.0 0.00 0.00 0.00 48 1018.3
20260831193221 24 198 0.0 0.0 0.00 0.00 0.00 45 1018.7
20260831193114 24 198 0.0 0.0 0.00 0.00 0.00 45 1018.7
20260831191219 24 198 0.0 0.0 0.00 0.00 0.00 48 1018.9
20260831183219 25 198 0.0 6.4 0.00 0.00 0.00 49 1018.9
20260831183114 25 198 0.0 6.4 0.00 0.00 0.00 48 1018.9
20260831181219 26 198 0.0 6.4 0.00 0.00 0.00 46 1019.2